Time,TemperatureF,DewpointF,PressureIn,WindDirection,WindDirectionDegrees,WindSpeedMPH,WindSpeedGustMPH,Humidity,HourlyPrecipIn,Conditions,Clouds,dailyrainin,SolarRadiationWatts/m^2,SoftwareType,DateUTC
2013-02-11 00:02:00,45.0,41.0,-100.00,South,184,9.0,15.0,87,0.00,,,0.20,0.000000,,2013-02-11 05:02:00,
2013-02-11 00:32:00,48.0,43.0,-100.00,SSW,197,9.0,17.0,83,0.00,,,0.20,0.000000,,2013-02-11 05:32:00,
2013-02-11 00:42:00,48.0,43.0,-100.00,SSW,197,9.0,17.0,83,0.00,,,0.20,0.000000,,2013-02-11 05:42:00,
2013-02-11 00:53:00,48.0,43.0,-100.00,SSW,197,9.0,17.0,83,0.00,,,0.20,0.000000,,2013-02-11 05:53:00,
2013-02-11 01:02:00,48.0,43.0,-100.00,SSW,197,9.0,17.0,83,0.00,,,0.20,0.000000,,2013-02-11 06:02:00,
2013-02-11 01:32:00,51.0,46.0,-100.00,SSW,198,12.0,19.0,83,0.00,,,0.20,0.000000,,2013-02-11 06:32:00,
2013-02-11 01:42:00,51.0,46.0,-100.00,SSW,198,12.0,19.0,83,0.00,,,0.20,0.000000,,2013-02-11 06:42:00,
2013-02-11 01:52:00,51.0,46.0,-100.00,SSW,198,12.0,19.0,83,0.00,,,0.20,0.000000,,2013-02-11 06:52:00,
2013-02-11 02:02:00,51.0,46.0,-100.00,SSW,198,12.0,19.0,83,0.00,,,0.20,0.000000,,2013-02-11 07:02:00,
2013-02-11 02:32:00,53.0,47.0,-100.00,SSW,207,12.0,24.0,81,0.00,,,0.20,0.000000,,2013-02-11 07:32:00,
2013-02-11 02:42:00,53.0,47.0,-100.00,SSW,207,12.0,24.0,81,0.00,,,0.20,0.000000,,2013-02-11 07:42:00,
2013-02-11 02:52:00,53.0,47.0,-100.00,SSW,207,12.0,24.0,81,0.00,,,0.20,0.000000,,2013-02-11 07:52:00,
2013-02-11 03:01:00,53.0,47.0,-100.00,SSW,207,12.0,24.0,81,0.00,,,0.20,0.000000,,2013-02-11 08:01:00,
2013-02-11 03:32:00,53.0,48.0,-100.00,SSW,212,9.0,20.0,83,0.00,,,0.20,0.000000,,2013-02-11 08:32:00,
2013-02-11 03:42:00,53.0,48.0,-100.00,SSW,212,9.0,20.0,83,0.00,,,0.20,0.000000,,2013-02-11 08:42:00,
2013-02-11 03:52:00,53.0,48.0,-100.00,SSW,212,9.0,20.0,83,0.00,,,0.20,0.000000,,2013-02-11 08:52:00,
2013-02-11 04:02:00,53.0,48.0,-100.00,SSW,212,9.0,20.0,83,0.00,,,0.20,0.000000,,2013-02-11 09:02:00,
2013-02-11 04:32:00,54.0,50.0,-100.00,SW,222,8.0,22.0,85,0.00,,,0.20,0.000000,,2013-02-11 09:32:00,
2013-02-11 04:42:00,54.0,50.0,-100.00,SW,222,8.0,22.0,85,0.00,,,0.20,0.000000,,2013-02-11 09:42:00,
2013-02-11 04:52:00,54.0,50.0,-100.00,SW,222,8.0,22.0,85,0.00,,,0.20,0.000000,,2013-02-11 09:52:00,
2013-02-11 05:02:00,54.0,50.0,-100.00,SW,222,8.0,22.0,85,0.00,,,0.20,0.000000,,2013-02-11 10:02:00,
2013-02-11 05:32:00,54.0,51.0,-100.00,SSW,207,9.0,17.0,88,0.00,,,0.20,0.000000,,2013-02-11 10:32:00,
2013-02-11 05:42:00,54.0,51.0,-100.00,SSW,207,9.0,17.0,88,0.00,,,0.20,0.000000,,2013-02-11 10:42:00,
2013-02-11 05:52:00,54.0,51.0,-100.00,SSW,207,9.0,17.0,88,0.00,,,0.20,0.000000,,2013-02-11 10:52:00,
2013-02-11 06:02:00,54.0,51.0,-100.00,SSW,207,9.0,17.0,88,0.00,,,0.20,0.000000,,2013-02-11 11:02:00,
2013-02-11 06:32:00,55.0,51.0,-100.00,SW,228,9.0,16.0,86,0.00,,,0.20,0.000000,,2013-02-11 11:32:00,
2013-02-11 06:42:00,55.0,51.0,-100.00,SW,228,9.0,16.0,86,0.00,,,0.20,0.000000,,2013-02-11 11:42:00,
2013-02-11 06:52:00,55.0,51.0,-100.00,SW,228,9.0,16.0,86,0.00,,,0.20,0.000000,,2013-02-11 11:52:00,
2013-02-11 07:03:00,55.0,51.0,-100.00,SW,228,9.0,16.0,86,0.00,,,0.20,0.000000,,2013-02-11 12:03:00,
2013-02-11 07:32:00,54.0,49.0,-100.00,SW,222,9.0,17.0,84,0.00,,,-99.99,0.000000,,2013-02-11 12:32:00,
2013-02-11 07:42:00,54.0,49.0,-100.00,SW,222,9.0,17.0,84,0.00,,,-99.99,0.000000,,2013-02-11 12:42:00,
2013-02-11 07:52:00,54.0,49.0,-100.00,SW,222,9.0,17.0,84,0.00,,,-99.99,0.000000,,2013-02-11 12:52:00,
2013-02-11 08:02:00,54.0,49.0,-100.00,SW,222,9.0,17.0,84,0.00,,,-99.99,0.000000,,2013-02-11 13:02:00,
2013-02-11 08:33:00,54.0,44.0,-100.00,SW,233,9.0,20.0,69,0.00,,,-99.99,8.000000,,2013-02-11 13:33:00,
2013-02-11 08:42:00,54.0,44.0,-100.00,SW,233,9.0,20.0,69,0.00,,,-99.99,8.000000,,2013-02-11 13:42:00,
2013-02-11 08:52:00,54.0,44.0,-100.00,SW,233,9.0,20.0,69,0.00,,,-99.99,8.000000,,2013-02-11 13:52:00,
2013-02-11 09:02:00,54.0,44.0,-100.00,SW,233,9.0,20.0,69,0.00,,,-99.99,8.000000,,2013-02-11 14:02:00,
2013-02-11 09:33:00,55.0,38.0,-100.00,WSW,243,11.0,25.0,52,0.00,,,-99.99,122.000000,,2013-02-11 14:33:00,
2013-02-11 09:42:00,55.0,38.0,-100.00,WSW,243,11.0,25.0,52,0.00,,,-99.99,122.000000,,2013-02-11 14:42:00,
2013-02-11 09:53:00,55.0,38.0,-100.00,WSW,243,11.0,25.0,52,0.00,,,-99.99,122.000000,,2013-02-11 14:53:00,
2013-02-11 10:02:00,55.0,38.0,-100.00,WSW,243,11.0,25.0,52,0.00,,,-99.99,122.000000,,2013-02-11 15:02:00,
2013-02-11 10:32:00,56.0,34.0,-100.00,SW,236,15.0,27.0,43,0.00,,,0.20,314.000000,,2013-02-11 15:32:00,
2013-02-11 10:42:00,56.0,34.0,-100.00,SW,236,15.0,27.0,43,0.00,,,0.20,314.000000,,2013-02-11 15:42:00,
2013-02-11 10:52:00,56.0,34.0,-100.00,SW,236,15.0,27.0,43,0.00,,,0.20,314.000000,,2013-02-11 15:52:00,
2013-02-11 11:02:00,56.0,34.0,-100.00,SW,236,15.0,27.0,43,0.00,,,0.20,314.000000,,2013-02-11 16:02:00,
2013-02-11 11:32:00,56.0,31.0,-100.00,WSW,253,13.0,28.0,38,0.00,,,0.20,340.000000,,2013-02-11 16:32:00,
2013-02-11 11:42:00,56.0,31.0,-100.00,WSW,253,13.0,28.0,38,0.00,,,0.20,340.000000,,2013-02-11 16:42:00,
2013-02-11 11:53:00,56.0,31.0,-100.00,WSW,253,13.0,28.0,38,0.00,,,0.20,340.000000,,2013-02-11 16:53:00,
2013-02-11 12:02:00,56.0,31.0,-100.00,WSW,253,13.0,28.0,38,0.00,,,0.20,340.000000,,2013-02-11 17:02:00,
2013-02-11 12:32:00,56.0,27.0,-100.00,WSW,237,17.0,35.0,33,0.00,,,0.20,467.000000,,2013-02-11 17:32:00,
2013-02-11 12:42:00,56.0,27.0,-100.00,WSW,237,17.0,35.0,33,0.00,,,0.20,467.000000,,2013-02-11 17:42:00,
2013-02-11 12:53:00,56.0,27.0,-100.00,WSW,237,17.0,35.0,33,0.00,,,0.20,467.000000,,2013-02-11 17:53:00,
2013-02-11 13:02:00,56.0,27.0,-100.00,WSW,237,17.0,35.0,33,0.00,,,0.20,467.000000,,2013-02-11 18:02:00,
2013-02-11 13:32:00,57.0,26.0,-100.00,SW,231,17.0,29.0,30,0.00,,,0.20,454.000000,,2013-02-11 18:32:00,
2013-02-11 13:42:00,57.0,26.0,-100.00,SW,231,17.0,29.0,30,0.00,,,0.20,454.000000,,2013-02-11 18:42:00,
2013-02-11 13:54:00,57.0,26.0,-100.00,SW,231,17.0,29.0,30,0.00,,,0.20,454.000000,,2013-02-11 18:54:00,
2013-02-11 14:02:00,57.0,26.0,-100.00,SW,231,17.0,29.0,30,0.00,,,0.20,454.000000,,2013-02-11 19:02:00,
2013-02-11 15:32:00,55.0,24.0,-100.00,WSW,240,11.0,29.0,30,-99.99,,,0.20,328.000000,,2013-02-11 20:32:00,
2013-02-11 15:42:00,55.0,24.0,-100.00,WSW,240,11.0,29.0,30,-99.99,,,0.20,328.000000,,2013-02-11 20:42:00,
2013-02-11 15:52:00,55.0,24.0,-100.00,WSW,240,11.0,29.0,30,-99.99,,,0.20,328.000000,,2013-02-11 20:52:00,
2013-02-11 16:02:00,55.0,24.0,-100.00,WSW,240,11.0,29.0,30,-99.99,,,0.20,328.000000,,2013-02-11 21:02:00,
2013-02-11 16:32:00,54.0,23.0,-100.00,WSW,237,12.0,27.0,30,0.00,,,0.20,255.000000,,2013-02-11 21:32:00,
2013-02-11 16:42:00,54.0,23.0,-100.00,WSW,237,12.0,27.0,30,0.00,,,0.20,255.000000,,2013-02-11 21:42:00,
2013-02-11 16:52:00,54.0,23.0,-100.00,WSW,237,12.0,27.0,30,0.00,,,0.20,255.000000,,2013-02-11 21:52:00,
2013-02-11 17:02:00,54.0,23.0,-100.00,WSW,237,12.0,27.0,30,0.00,,,0.20,255.000000,,2013-02-11 22:02:00,
2013-02-11 17:32:00,52.0,22.0,-100.00,WSW,244,7.0,30.0,30,0.00,,,0.13,146.000000,,2013-02-11 22:32:00,
2013-02-11 17:42:00,52.0,22.0,-100.00,WSW,244,7.0,30.0,30,0.00,,,0.13,146.000000,,2013-02-11 22:42:00,
2013-02-11 17:52:00,52.0,22.0,-100.00,WSW,244,7.0,30.0,30,0.00,,,0.13,146.000000,,2013-02-11 22:52:00,
2013-02-11 18:02:00,52.0,22.0,-100.00,WSW,244,7.0,30.0,30,0.00,,,0.13,146.000000,,2013-02-11 23:02:00,
2013-02-11 18:32:00,49.0,21.0,-100.00,WSW,256,13.0,23.0,33,0.00,,,0.06,47.000000,,2013-02-11 23:32:00,
2013-02-11 18:42:00,49.0,21.0,-100.00,WSW,256,13.0,23.0,33,0.00,,,0.06,47.000000,,2013-02-11 23:42:00,
2013-02-11 18:52:00,49.0,21.0,-100.00,WSW,256,13.0,23.0,33,0.00,,,0.06,47.000000,,2013-02-11 23:52:00,
2013-02-11 19:02:00,49.0,21.0,-100.00,WSW,256,13.0,23.0,33,0.00,,,0.06,47.000000,,2013-02-12 00:02:00,
2013-02-11 19:32:00,46.0,23.0,-100.00,WSW,251,10.0,23.0,40,0.00,,,0.00,1.000000,,2013-02-12 00:32:00,
2013-02-11 19:42:00,46.0,23.0,-100.00,WSW,251,10.0,23.0,40,0.00,,,0.00,1.000000,,2013-02-12 00:42:00,
2013-02-11 19:52:00,46.0,23.0,-100.00,WSW,251,10.0,23.0,40,0.00,,,0.00,1.000000,,2013-02-12 00:52:00,
2013-02-11 20:02:00,46.0,23.0,-100.00,WSW,251,10.0,23.0,40,0.00,,,0.00,1.000000,,2013-02-12 01:02:00,
2013-02-11 20:32:00,44.0,25.0,-100.00,WSW,247,10.0,21.0,47,0.00,,,-99.99,0.000000,,2013-02-12 01:32:00,
2013-02-11 20:42:00,44.0,25.0,-100.00,WSW,247,10.0,21.0,47,0.00,,,-99.99,0.000000,,2013-02-12 01:42:00,
2013-02-11 20:52:00,44.0,25.0,-100.00,WSW,247,10.0,21.0,47,0.00,,,-99.99,0.000000,,2013-02-12 01:52:00,
2013-02-11 21:02:00,44.0,25.0,-100.00,WSW,247,10.0,21.0,47,0.00,,,-99.99,0.000000,,2013-02-12 02:02:00,
2013-02-11 21:32:00,43.0,26.0,-100.00,WSW,247,9.0,18.0,50,0.00,,,0.00,0.000000,,2013-02-12 02:32:00,
2013-02-11 21:42:00,43.0,26.0,-100.00,WSW,247,9.0,18.0,50,0.00,,,0.00,0.000000,,2013-02-12 02:42:00,
2013-02-11 21:53:00,43.0,26.0,-100.00,WSW,247,9.0,18.0,50,0.00,,,0.00,0.000000,,2013-02-12 02:53:00,
2013-02-11 22:02:00,43.0,26.0,-100.00,WSW,247,9.0,18.0,50,0.00,,,0.00,0.000000,,2013-02-12 03:02:00,
2013-02-11 22:32:00,42.0,25.0,-100.00,WSW,253,9.0,17.0,51,0.00,,,0.00,0.000000,,2013-02-12 03:32:00,
2013-02-11 22:42:00,42.0,25.0,-100.00,WSW,253,9.0,17.0,51,0.00,,,0.00,0.000000,,2013-02-12 03:42:00,
2013-02-11 22:52:00,42.0,25.0,-100.00,WSW,253,9.0,17.0,51,0.00,,,0.00,0.000000,,2013-02-12 03:52:00,
2013-02-11 23:01:00,42.0,25.0,-100.00,WSW,253,9.0,17.0,51,0.00,,,0.00,0.000000,,2013-02-12 04:01:00,
2013-02-11 23:32:00,41.0,25.0,-100.00,WSW,257,8.0,16.0,52,0.00,,,0.00,0.000000,,2013-02-12 04:32:00,
2013-02-11 23:42:00,41.0,25.0,-100.00,WSW,257,8.0,16.0,52,0.00,,,0.00,0.000000,,2013-02-12 04:42:00,
2013-02-11 23:52:00,41.0,25.0,-100.00,WSW,257,8.0,16.0,52,0.00,,,0.00,0.000000,,2013-02-12 04:52:00,